TITAN 3C TRANSTAGE DEB, 59979

Orbit data source: Space-Track

TITAN 3C TRANSTAGE DEB, 59979 is space debris in GEO originally from a launch on Thu, 26 Sep 1968 UTC launched from the Air Force Eastern Test Range (AFETR). Debris objects in space refer to the collection of defunct objects orbiting the Earth. Examples of debris include non-operational satellites, rocket bodies, and fragments generated from explosions, collisions, or faulty payload assembly.

Loading next visibility...
Identifier
59979, 1968-081AM
Orbit
GEO
Country
Flag of USUS
Related business
Manufacturer
Unknown
Mission
Spacecraft
Bus & Motor
Unknown
Mass
Unknown
Launch date (UTC)
1968-09-26 (58 years ago)
Launch vehicle
Unknown
Launch site
Air Force Eastern Test Range (AFETR)
Object type
Payload
Rocket body
Debris
Shape & HBR
Unknown shape, 1.1 m
Radar Cross Section
RCS unknown

Expand to show TLE details & history
Last TLE update: 4 days ago

TLE from 4 days ago
0 TITAN 3C TRANSTAGE DEB
1 59979U 68081AM  26091.03190747 -.00000121  00000-0  00000-0 0  9996
2 59979   2.4689  67.0572 0045204 150.4829 210.2030  1.03317901 60280
Epoch: 2026-04-01T00:45Z
TLE epoch observation values (Epoch: 2026-04-01T00:45:56.805Z)
Latitude
-0.00001°
Longitude
-133.39282°
Altitude
35,114.866 km
Speed
3.093 km/s
True Right ascension
04h 29m 58s
True Declination
0° 00' 00"
Sunlit
Object was in daylight at epoch
Visualization orbit readout
Latitude
Unknown
Longitude
Unknown
Altitude
Unknown
Speed
Unknown
Apparent Right ascension
Unknown
Apparent Declination
Unknown
Sunlit
N/A
Visualization observer readout
Local Sidereal Time
00:39:14
Azimuth
Unknown
Elevation
Unknown
Doppler factor
Unknown
Orbital elements
Apogee altitude
35,141.637 km
Perigee altitude
34,767.955 km
Semi-major axis
41,332.933 km
Eccentricity
0.00452
Inclination
2.4689°
RAAN
67.0572°
Arg. of periapsis
150.4829°
True anomaly
209.94368°
Mean anomaly
210.203°
Eccentric anomaly
210.07321°
Mean motion
0.25828 °/min
Orbital period
1,393.81 mins
BSTAR
0
Loading maneuver chart data...
Computing Atmospheric mass density...

Documentation

Showing up to 5 results
|